Home   Weather   Namur   Past weeks

Flag for Belgium Past Weather in Namur, Belgium — Yesterday and Last 2 Weeks

Now
41 °F

Passing clouds.


Feels Like: 38 °F
Forecast: 45 / 48 °F
Wind: 5 mph from Southwest

Location: Charleroi / Gosselies

Current Time: Dec 10, 2016 at 8:14:30 am

Latest Report: Dec 10, 2016 at 7:50 am


Visibility: N/A

Pressure: 30.27 "Hg

Humidity: 87%

Dew Point: 37 °F

Location of NamurLocation

Past Weather in Namur — Graph

°F

Namur Temperature Yesterday

Maximum temperature yesterday: 54 °F (at 1:50 pm)
Minimum temperature yesterday: 43 °F (at 4:50 am)
Average temperature yesterday: 47 °F

High & Low Weather Summary for the Past Weeks

 TemperatureHumidityPressure
High54 °F (Dec 9, 1:50 pm)100% (Nov 27, 3:50 am)30.57 "Hg (Nov 27, 3:50 am)
Low23 °F (Dec 4, 8:20 am)39% (Dec 8, 11:20 am)30.01 "Hg (Nov 25, 6:50 am)
Average38 °F79%30.31 "Hg
* Reported Nov 25 6:20 am — Dec 10 6:50 am, Namur, Weather by CustomWeather, © 2016

Note: Actual official high and low records may vary slightly from our data, if they occured in-between our weather recording intervals... More about our weather records

Advertising

Namur Weather History for the Previous 24 Hours

Scroll right to see more
 ConditionsComfort  
Time TempWeatherWind HumidityBarometerVisibility
6:50 am
Sat, Dec 10
41 °FClear.6 mph87%30.27 "Hg10 mi
6:20 am43 °FClear.6 mph81%30.27 "Hg10 mi
5:50 am41 °FClear.8 mph87%30.27 "Hg10 mi
5:20 am41 °FClear.7 mph93%30.27 "Hg10 mi
4:50 am43 °FClear.8 mph87%30.27 "Hg10 mi
4:20 am43 °FClear.8 mph87%30.27 "Hg10 mi
3:50 am43 °FClear.10 mph87%30.30 "Hg10 mi
3:20 am43 °FClear.10 mph87%30.30 "Hg10 mi
2:50 am43 °FClear.13 mph87%30.30 "Hg10 mi
2:20 am43 °FClear.14 mph87%30.30 "Hg10 mi
1:50 am43 °FClear.12 mph87%30.30 "Hg10 mi
1:20 am43 °FClear.12 mph87%30.30 "Hg10 mi
12:50 am43 °FClear.10 mph87%30.30 "Hg10 mi
12:20 am43 °FClear.10 mph87%30.33 "Hg10 mi
11:50 pm
Fri, Dec 9
43 °FClear.12 mph87%30.33 "Hg10 mi
11:20 pm43 °FClear.12 mph87%30.33 "Hg10 mi
10:50 pm45 °FClear.13 mph81%30.33 "Hg10 mi
10:20 pm45 °FClear.14 mph87%30.33 "Hg10 mi
9:50 pm45 °FClear.13 mph87%30.33 "Hg10 mi
9:20 pm46 °FClear.10 mph82%30.36 "Hg10 mi
8:50 pm46 °FClear.12 mph82%30.36 "Hg10 mi
8:20 pm46 °FClear.9 mph82%30.36 "Hg10 mi
7:50 pm46 °FClear.12 mph82%30.36 "Hg10 mi
7:20 pm45 °FClear.9 mph87%30.36 "Hg10 mi
6:50 pm46 °FClear.12 mph82%30.36 "Hg10 mi
6:20 pm46 °FClear.12 mph87%30.39 "Hg10 mi
5:50 pm46 °FClear.8 mph87%30.39 "Hg10 mi
5:20 pm46 °FClear.9 mph87%30.39 "Hg10 mi
4:50 pm48 °FClear.12 mph82%30.39 "Hg10 mi
4:20 pm48 °FPassing clouds.10 mph82%30.39 "HgN/A
3:50 pm50 °FPassing clouds.13 mph76%30.39 "HgN/A
3:20 pm52 °FScattered clouds.12 mph72%30.39 "HgN/A
2:50 pm54 °FScattered clouds.13 mph67%30.36 "HgN/A
2:20 pm52 °FSunny.13 mph72%30.39 "Hg10 mi
1:50 pm54 °FPassing clouds.10 mph67%30.39 "HgN/A
1:20 pm52 °FPassing clouds.10 mph67%30.39 "HgN/A
12:50 pm52 °FPassing clouds.14 mph67%30.39 "HgN/A
12:20 pm52 °FPartly sunny.14 mph67%30.39 "HgN/A
11:50 am50 °FPartly sunny.12 mph67%30.42 "HgN/A
11:20 am48 °FPartly sunny.12 mph71%30.42 "HgN/A
10:50 am48 °FPartly sunny.9 mph71%30.42 "HgN/A
10:20 am48 °FPartly sunny.8 mph71%30.42 "HgN/A
9:50 am46 °FPartly sunny.10 mph71%30.39 "HgN/A
9:20 am46 °FPartly sunny.13 mph71%30.39 "HgN/A
8:50 am46 °FPartly sunny.9 mph76%30.39 "HgN/A
8:20 am45 °FPassing clouds.8 mph81%30.39 "HgN/A
Weather by CustomWeather, © 2016

See weather overviewHow to use our weather pages